| time (UTC) | temp F | wind direction | speed MPH | gust MPH | rain 1hr in | rain 24hr in | rain mn in | humidity % | barometer mb |
| 20260503021539 | 42 | 0 | 0.0 | 0.0 | 0.00 | 0.00 | 0.00 | 56 | 1016.4 |
| 20260503020039 | 43 | 0 | 0.0 | 0.0 | 0.00 | 0.00 | 0.00 | 54 | 1016.6 |
| 20260503014547 | 44 | 0 | 0.0 | 0.0 | 0.00 | 0.00 | 0.00 | 53 | 1016.4 |
| 20260503013038 | 45 | 0 | 0.0 | 0.0 | 0.00 | 0.00 | 0.00 | 51 | 1016.5 |
| 20260503011538 | 45 | 0 | 0.0 | 0.0 | 0.00 | 0.00 | 0.00 | 50 | 1016.5 |
| 20260503010038 | 46 | 0 | 0.0 | 6.0 | 0.00 | 0.00 | 0.00 | 49 | 1016.4 |
| 20260503004605 | 47 | 0 | 1.0 | 8.0 | 0.00 | 0.00 | 0.00 | 47 | 1016.4 |
| 20260503003048 | 48 | 0 | 0.0 | 12.0 | 0.00 | 0.00 | 0.00 | 46 | 1016.4 |
| 20260503001552 | 48 | 0 | 1.0 | 9.0 | 0.00 | 0.00 | 0.00 | 44 | 1016.4 |
| 20260503000039 | 49 | 0 | 0.0 | 10.0 | 0.00 | 0.00 | 0.00 | 44 | 1016.3 |
| 20260502234541 | 50 | 248 | 4.0 | 9.0 | 0.00 | 0.00 | 0.00 | 42 | 1016.3 |
| 20260502233046 | 50 | 0 | 1.0 | 9.0 | 0.00 | 0.00 | 0.00 | 41 | 1016.3 |
| 20260502231539 | 50 | 317 | 2.0 | 11.0 | 0.00 | 0.00 | 0.00 | 39 | 1016.4 |
| 20260502230040 | 51 | 0 | 2.0 | 11.0 | 0.00 | 0.00 | 0.00 | 37 | 1016.4 |
| 20260502224538 | 51 | 246 | 1.0 | 11.0 | 0.00 | 0.00 | 0.00 | 38 | 1016.5 |
| 20260502223047 | 51 | 271 | 4.0 | 11.0 | 0.00 | 0.00 | 0.00 | 38 | 1016.6 |
| 20260502221543 | 50 | 267 | 1.0 | 10.0 | 0.00 | 0.00 | 0.00 | 40 | 1016.7 |
| 20260502220039 | 50 | 261 | 5.0 | 15.0 | 0.00 | 0.00 | 0.00 | 37 | 1016.7 |
| 20260502214539 | 50 | 286 | 3.0 | 16.0 | 0.00 | 0.00 | 0.00 | 39 | 1016.8 |
| 20260502213039 | 50 | 259 | 6.0 | 14.0 | 0.00 | 0.00 | 0.00 | 39 | 1016.9 |
| 20260502211544 | 50 | 277 | 6.0 | 12.0 | 0.00 | 0.00 | 0.00 | 41 | 1017.0 |
| 20260502210038 | 50 | 248 | 6.0 | 14.0 | 0.00 | 0.00 | 0.00 | 42 | 1017.0 |
| 20260502204552 | 50 | 324 | 7.0 | 17.0 | 0.00 | 0.00 | 0.00 | 43 | 1017.3 |
| 20260502203044 | 50 | 252 | 7.0 | 17.0 | 0.00 | 0.00 | 0.00 | 42 | 1017.4 |
| 20260502201549 | 50 | 227 | 7.0 | 15.0 | 0.00 | 0.00 | 0.00 | 44 | 1017.6 |
| 20260502200040 | 50 | 233 | 5.0 | 22.0 | 0.00 | 0.00 | 0.00 | 47 | 1017.7 |
| 20260502194537 | 50 | 253 | 6.0 | 15.0 | 0.00 | 0.00 | 0.00 | 45 | 1017.9 |
| 20260502193037 | 50 | 317 | 7.0 | 12.0 | 0.00 | 0.00 | 0.00 | 47 | 1018.0 |
| 20260502191550 | 50 | 280 | 6.0 | 14.0 | 0.00 | 0.00 | 0.00 | 46 | 1018.0 |
| 20260502190104 | 50 | 241 | 5.0 | 16.0 | 0.00 | 0.00 | 0.00 | 48 | 1018.1 |
| 20260502184548 | 50 | 247 | 9.0 | 18.0 | 0.00 | 0.00 | 0.00 | 47 | 1018.2 |
| 20260502183059 | 50 | 259 | 5.0 | 15.0 | 0.00 | 0.00 | 0.00 | 48 | 1018.4 |
| 20260502181543 | 50 | 244 | 4.0 | 17.0 | 0.00 | 0.00 | 0.00 | 49 | 1018.4 |
| 20260502163045 | 46 | 322 | 4.0 | 9.0 | 0.00 | 0.00 | 0.00 | 51 | 1019.1 |
| 20260502161549 | 46 | 5 | 4.0 | 11.0 | 0.00 | 0.00 | 0.00 | 53 | 1019.1 |
| 20260502151541 | 46 | 0 | 2.0 | 10.0 | 0.00 | 0.00 | 0.00 | 53 | 1019.2 |
| 20260502123039 | 36 | 352 | 3.0 | 10.0 | 0.00 | 0.00 | 0.00 | 84 | 1019.6 |
| 20260502121546 | 35 | 0 | 2.0 | 7.0 | 0.00 | 0.00 | 0.00 | 83 | 1019.6 |
| 20260502114545 | 33 | 0 | 0.0 | 0.0 | 0.00 | 0.00 | 0.00 | 79 | 1019.5 |
| 20260502113043 | 32 | 0 | 0.0 | 0.0 | 0.00 | 0.00 | 0.00 | 76 | 1019.4 |
| 20260502111539 | 32 | 0 | 0.0 | 0.0 | 0.00 | 0.00 | 0.00 | 75 | 1019.4 |
| 20260502110038 | 32 | 0 | 0.0 | 0.0 | 0.00 | 0.00 | 0.00 | 75 | 1019.3 |
| 20260502104537 | 33 | 0 | 0.0 | 0.0 | 0.00 | 0.00 | 0.00 | 75 | 1019.2 |
| 20260502103043 | 33 | 0 | 0.0 | 0.0 | 0.00 | 0.00 | 0.00 | 74 | 1019.3 |
| 20260502101551 | 34 | 0 | 0.0 | 0.0 | 0.00 | 0.00 | 0.00 | 73 | 1019.1 |
| 20260502070042 | 38 | 0 | 0.0 | 5.0 | 0.00 | 0.00 | 0.00 | 71 | 1018.6 |
| 20260502064537 | 38 | 0 | 0.0 | 3.0 | 0.00 | 0.00 | 0.00 | 71 | 1018.6 |
| 20260502063038 | 38 | 336 | 1.0 | 5.0 | 0.00 | 0.00 | 0.00 | 70 | 1018.7 |
| 20260502061540 | 38 | 0 | 0.0 | 3.0 | 0.00 | 0.00 | 0.00 | 70 | 1018.7 |
| 20260502060038 | 38 | 0 | 0.0 | 0.0 | 0.00 | 0.00 | 0.00 | 69 | 1018.8 |
| 20260502054545 | 38 | 0 | 0.0 | 0.0 | 0.00 | 0.00 | 0.00 | 69 | 1018.8 |
| 20260502053040 | 38 | 0 | 0.0 | 4.0 | 0.00 | 0.00 | 0.00 | 69 | 1018.8 |
| 20260502051544 | 38 | 0 | 0.0 | 3.0 | 0.00 | 0.00 | 0.00 | 69 | 1018.7 |
| 20260502050040 | 38 | 0 | 0.0 | 4.0 | 0.00 | 0.00 | 0.00 | 68 | 1018.7 |
| 20260502044539 | 38 | 0 | 0.0 | 6.0 | 0.00 | 0.00 | 0.00 | 68 | 1018.6 |
| 20260502043037 | 38 | 0 | 0.0 | 8.0 | 0.00 | 0.00 | 0.00 | 67 | 1018.6 |
| 20260502041559 | 39 | 317 | 2.0 | 8.0 | 0.00 | 0.00 | 0.00 | 67 | 1018.4 |
| 20260502040045 | 39 | 294 | 3.0 | 9.0 | 0.00 | 0.00 | 0.00 | 66 | 1018.5 |
| 20260502034538 | 39 | 350 | 1.0 | 12.0 | 0.00 | 0.00 | 0.00 | 65 | 1018.3 |
| 20260502033050 | 39 | 324 | 3.0 | 12.0 | 0.00 | 0.00 | 0.00 | 64 | 1018.4 |
| 20260502031538 | 39 | 331 | 2.0 | 9.0 | 0.00 | 0.00 | 0.00 | 63 | 1018.4 |
| 20260502030038 | 39 | 9 | 3.0 | 11.0 | 0.00 | 0.00 | 0.00 | 61 | 1018.2 |
| 20260502024545 | 39 | 346 | 4.0 | 11.0 | 0.00 | 0.00 | 0.00 | 60 | 1018.3 |
| 20260502023042 | 39 | 284 | 5.0 | 11.0 | 0.00 | 0.00 | 0.00 | 59 | 1018.2 |